User: anonymous   Login
Location: Unspecified
(0.0000°N, 0.0000°E)
Time: 09:37:24
(UTC+00:00)
Language:

Intelsat II F-4 - Orbit

View from above orbital plane
View from above orbital plane
View from above satellite
View from above satellite

Ground track
Ground track

The orbit data is extracted from the following two-line orbital elements,

1  2969U 67094A   17295.68868873 +.00000120 +00000-0 +00000-0 0  9993
2  2969 003.5672 296.8163 0015791 245.0444 302.8954 01.00209244083635
Epoch (UTC): 22 October 2017 16:31:42
Eccentricity: 0.0015791
inclination: 3.5672°
perigee height: 35737 km
apogee height: 35870 km
right ascension of ascending node: 296.8163°
argument of perigee: 245.0444°
revolutions per day: 1.00209244
mean anomaly at epoch: 302.8954°
orbit number at epoch: 8363

The dashed part of the orbit path shows where the satellite is in the earth's shadow,  

DLR